Home > Weather > Escondido > Past weeks

Flag for USA Past Weather in Escondido, California, USA — Yesterday and Last 2 Weeks

Now
91 °F

Sunny.


Feels Like: 90 °F
Forecast: 63 / 91 °F
Wind: 9 mph from Northwest

Location: Ramona Airport

Current Time: Jun 28, 2016 at 11:58:07 AM

Latest Report: Jun 28, 2016 at 10:53 AM


Visibility: 10 mi

Pressure: 29.93 "Hg

Humidity: 34%

Dew Point: 59 °F

Location of EscondidoLocation

Past Weather in Escondido — Graph

°F

Escondido Temperature Yesterday

Maximum temperature yesterday: 97 °F (at 12:53 PM)
Minimum temperature yesterday: 64 °F (at 1:53 AM)
Average temperature yesterday: 79 °F

High & Low Weather Summary for the Past Weeks

 TemperatureHumidityPressure
High108 °F (Jun 20, 11:53 AM)100% (Jun 23, 3:53 AM)30.11 "Hg (Jun 23, 3:53 AM)
Low49 °F (Jun 18, 5:53 AM)9% (Jun 20, 1:53 PM)29.81 "Hg (Jun 25, 5:53 PM)
Average72 °F56%29.92 "Hg
* Reported Jun 13 9:53 AM — Jun 28 9:53 AM, Escondido, Weather by CustomWeather, © 2016

Note: Actual official high and low records may vary slightly from our data, if they occured in-between our weather recording intervals... More about our weather records

Advertising

Escondido Weather History for the Previous 24 Hours

Scroll right to see more
 ConditionsComfort  
Time TempWeatherWind HumidityBarometerVisibility
9:53 AM
Tue, Jun 28
89 °FSunny.8 mph32%29.93 "Hg10 mi
8:53 AM86 °FSunny.3 mph31%29.94 "Hg10 mi
7:53 AM78 °FSunny.No wind45%29.93 "Hg10 mi
6:53 AM69 °FSunny.No wind63%29.93 "Hg10 mi
5:53 AM62 °FClear.3 mph75%29.91 "Hg9 mi
4:53 AM63 °FClear.No wind73%29.90 "Hg10 mi
3:53 AM65 °FClear.No wind70%29.89 "Hg10 mi
2:53 AM70 °FClear.6 mph59%29.89 "Hg10 mi
1:53 AM67 °FClear.No wind63%29.90 "Hg10 mi
12:53 AM67 °FClear.No wind68%29.90 "Hg10 mi
11:53 PM
Mon, Jun 27
68 °FClear.No wind63%29.91 "Hg10 mi
10:53 PM70 °FClear.No wind57%29.91 "Hg10 mi
9:53 PM73 °FClear.No wind55%29.90 "Hg10 mi
8:53 PM75 °FSunny.5 mph52%29.90 "Hg10 mi
7:53 PM79 °FSunny.8 mph44%29.90 "Hg10 mi
6:53 PM86 °FSunny.7 mph37%29.88 "Hg10 mi
5:53 PM89 °FSunny.9 mph38%29.88 "Hg10 mi
4:53 PM92 °FSunny.13 mph36%29.88 "Hg10 mi
3:53 PM96 °FSunny.10 mph29%29.88 "Hg10 mi
2:53 PM96 °FSunny.12 mph29%29.89 "Hg10 mi
1:53 PM95 °FSunny.13 mph32%29.90 "Hg10 mi
12:53 PM97 °FSunny.10 mph29%29.90 "Hg10 mi
11:53 AM94 °FSunny.12 mph32%29.90 "Hg10 mi
Weather by CustomWeather, © 2016

See weather overviewHow to use our weather pages